Weather Roundup
Issued by NWS Springfield, MO

Home | Current Version | Previous Version | Text Only | Print | Product List | Glossary On
Versions: 1 2 3 4 5 6 7 8 9 10 11 12 13 14 15 16 17 18 19 20 21 22 23 24 25 26 27 28 29 30 31 32 33 34 35 36 37 38 39 40 41 42 43 44 45 46 47 48 49 50
000
NZUS99 KSGF 291407
HRRSGF

HOURLY WEATHER
NATIONAL WEATHER SERVICE SPRINGFIELD MO
900 AM CDT TUE JUL 29 2014

......SGF CWA......

CITY           SKY/WX    TMP DP  RH WIND       PRES   REMARKS
SPRINGFIELD    SUNNY     69  55  60 S7        30.19R
JOPLIN         PTSUNNY   71  58  63 S6        30.19S
WEST PLAINS    SUNNY     69  54  58 NE6       30.19R
ROLLA          SUNNY     67  54  63 W6        30.16S
OSAGE BEACH    SUNNY     68  57  68 CALM      30.18S
BRANSON        MOSUNNY   73  55  53 SE6       30.20S

......SURROUNDING SGF CWA......

CITY           SKY/WX    TMP DP  RH WIND       PRES   REMARKS
CHANUTE        SUNNY     71  60  68 E5        30.19S
PARSONS        MOSUNNY   73  61  65 CALM      30.20R
COFFEYVILLE    MOSUNNY   72  61  68 CALM      30.18S
EMPORIA        CLOUDY    66  59  78 CALM      30.21R
GROVE OK       MOSUNNY   70  63  78 CALM      30.19S
ROGERS AR      SUNNY     71  59  65 E12       30.21S
SILOAM SPRINGS SUNNY     70  55  60 SE6       30.21R
HARRISON AR    SUNNY     68  58  70 SE6       30.20S
NEAR YELLVILLE SUNNY     68  55  64 CALM      30.19S

......KANSAS AND MISSOURI......

CITY           SKY/WX    TMP DP  RH WIND       PRES   REMARKS
KANSAS CTY INT MOSUNNY   69  61  75 CALM      30.18S
DOWNTOWN KC    SUNNY     71  61  70 CALM      30.17S
COLUMBIA       SUNNY     70  57  63 W5        30.18R
SEDALIA        SUNNY     70  57  63 SW8       30.18S
ST JOSEPH      SUNNY     66  62  87 N5        30.20R
ST LOUIS       MOSUNNY   70  57  63 W6        30.15S
SPIRIT OF STL  SUNNY     66  56  70 W3        30.15S
KIRKSVILLE     SUNNY     68  60  75 W5        30.18R
WICHITA        MOSUNNY   73  59  61 SE7       30.20S
TOPEKA         MOSUNNY   70  58  65 CALM      30.19S
OLATHE         SUNNY     69  59  70 CALM      30.18S

......TENNESSEE......

CITY           SKY/WX    TMP DP  RH WIND       PRES   REMARKS
MEMPHIS        MOSUNNY   73  56  54 NE8       30.14R
NASHVILLE      SUNNY     67  50  54 N13       30.11R

......ARKANSAS.......

CITY           SKY/WX    TMP DP  RH WIND       PRES   REMARKS
FAYETTEVILLE   MOSUNNY   67  60  78 CALM      30.20S
FT SMITH       SUNNY     74  63  68 E6        30.16R
LITTLE ROCK    MOSUNNY   74  61  63 NE7       30.17R

......OKLAHOMA.......

CITY           SKY/WX    TMP DP  RH WIND       PRES   REMARKS
TULSA          MOSUNNY   73  63  70 CALM      30.16R
PONCA CITY     SUNNY     75  61  61 SE12      30.17S
MCALESTER      MOSUNNY   76  65  68 CALM      30.17R
OKLAHOMA CITY  PTSUNNY   78  62  57 SE3       30.18R

......IOWA............

CITY           SKY/WX    TMP DP  RH WIND       PRES   REMARKS
DES MOINES     MOSUNNY   67  57  70 NW6       30.17R
QUAD CITIES    SUNNY     67  57  70 W5        30.12S

......ILLINOIS........

CITY           SKY/WX    TMP DP  RH WIND       PRES   REMARKS
QUINCY         SUNNY     66  60  81 NW6       30.14S
CHICAGO        PTSUNNY   69  51  52 NW9       30.05R



USA.gov is the U.S. government's official web portal to all federal, state and local government web resources and services.